{"data":{"norad_id":63714,"epoch":"2026-05-25T04:19:13.974240Z","epoch_age_seconds":70242,"freshness":"FRESH","line1":"1 63714U 25087T   26145.18002285  .00020108  00000+0  68901-3 0  9994","line2":"2 63714  53.1575 224.0504 0001271  81.7679 278.3466 15.30208716 60910","mean_motion":15.30208716,"eccentricity":0.0001271,"inclination_deg":53.1575,"raan_deg":224.0504,"arg_perigee_deg":81.7679,"mean_anomaly_deg":278.3466,"bstar":0.00068901,"rev_number":6091,"period_min":94.104809686628,"perigee_km":474.31798739758,"apogee_km":476.06010287826,"semimajor_km":6853.3260451379,"source":"CELESTRAK","updated_at":"2026-05-25T13:38:20.100166Z"}}